IRIDIUM 136

Last updated on Fri Sep 11 2026 00:03:06 GMT+0000 (Coordinated Universal Time)

1 42962U 17061H 26253.51067827 .00000119 00000+0 35461-4 0 9995 2 42962 86.4029 349.6022 0002162 94.6369 265.5074 14.34217747467060
UTC large
Height (km)
Speed (km/s)
/
Latitude / Longitude
Inclination (degrees)
Orbital Period (minutes)
Azimuth
Elevation
Range (km)
Doppler Factor

Next 0 passes for location: London (51.5072 / 0.1276)

No passes found over London.
IRIDIUM 136